Regional Weather Roundup
Issued by NWS Goodland, KS

Home | Current Version | Previous Version | Text Only | Print | Product List | Glossary Off
Versions: 1 2 3 4 5 6 7 8 9 10 11 12 13 14 15 16 17 18 19 20 21 22 23 24 25 26 27 28 29 30 31 32 33 34 35 36 37 38 39 40 41 42 43 44 45 46 47 48 49 50

000
ASUS43 KGLD 281559
RWRGLD

GOODLAND FORECAST AREA HOURLY WEATHER ROUNDUP
NATIONAL WEATHER SERVICE GOODLAND KS
1000 AM MDT SAT MAR 28 2015

...OFFICIAL OBSERVATIONS...

CITY           SKY/WX    TMP DP  RH WIND       PRES   REMARKS
GOODLAND KS    SUNNY     65  31  28 CALM      30.03F
HILL CITY KS   SUNNY     52  34  50 E5        30.04S
IMPERIAL NEB     N/A     59  34  39 MISG      30.00F
MCCOOK NEB     SUNNY     53  36  52 E5        30.02S
AKRON CO       SUNNY     64  29  26 W15       30.05S
BURLINGTON CO  SUNNY     67  35  30 NW6       30.05S
LIMON CO       SUNNY     65  27  23 NW8       30.11S
$$

...UNOFFICIAL OBSERVATIONS...

CITY           SKY/WX    TMP DP  RH WIND       PRES   REMARKS
COLBY KS       SUNNY     63  39  42 E7        30.04S
GOVE KS          N/A     58  32  37 MISG        N/A
LENORA KS        N/A     50  32  50 MISG        N/A
NORTON KS      SUNNY     50  30  46 NE6       30.03S
SHARON SPRINGS   N/A     66  37  34 CALM        N/A
KIT CARSON CO    N/A     72  36  27 MISG        N/A
YUMA CO          N/A     64  31  29 W13         N/A
$$


USA.gov is the U.S. government's official web portal to all federal, state and local government web resources and services.